ATLAS 5 CENTAUR DEB, 44675

Orbit data source: Space-Track

ATLAS 5 CENTAUR DEB, 44675 is space debris in HEO originally from a launch on Wed, 17 Oct 2018 UTC launched from the Air Force Eastern Test Range (AFETR). Debris objects in space refer to the collection of defunct objects orbiting the Earth. Examples of debris include non-operational satellites, rocket bodies, and fragments generated from explosions, collisions, or faulty payload assembly.

Loading next visibility...
Identifier
44675, 2018-079AM
Orbit
HEO
Last TLE update
2 days ago
Origin
Manufacturer
ULA Decatur
Mission
Spacecraft
Bus & Motor
Unknown
Mass
Unknown
Launch date (UTC)
2018-10-17 (7 years ago)
Launch vehicle
Unknown
Launch site
Air Force Eastern Test Range (AFETR)
Object type
Payload
Rocket body
Debris
Shape & HBR
Unknown
Radar Cross Section
RCS unknown

Expand to show TLE details & history

TLE from 2 days ago
0 ATLAS 5 CENTAUR DEB
1 44675U 18079AM  25126.97593774 -.00000061  00000-0  00000-0 0  9996
2 44675  12.9499  71.6004 4672325 240.5794  65.0692  1.80468752 39629
Epoch: 2025-05-06T23:25Z
Definitive object data (Epoch: 2025-05-06T23:25:21.02Z)
Latitude
0.00002°
Longitude
-144.88722°
Altitude
22,531.441 km
Speed
3.686 km/s
True Right ascension
04h 46m 04s
True Declination
0° 00' 00"
Sunlit
Object was in daylight at TLE epoch
Visualization TLE readout
Latitude
3.81124°
Longitude
-128.25642°
Altitude
27,242.161 km
Speed
3.119 km/s
Apparent Right ascension
05h 24m 28s
Apparent Declination
-2° 55' 37"
Sunlit
Object is in daylight
Visualization observer readout
Local Sidereal Time
13:36:39
Azimuth
290.338° WNW
Elevation
-26.774°
Doppler factor
1
Orbital elements
Apogee altitude
35,436.778 km
Perigee altitude
8,805.297 km
Semi-major axis
28,499.174 km
Eccentricity
0.4672325
Inclination
12.9499°
RAAN
71.6004°
Arg. of periapsis
240.5794°
True anomaly
119.45738°
Mean anomaly
65.0692°
Eccentric anomaly
91.82606°
Mean motion
0.45112 °/min
BSTAR
Unknown
Orbital period
798.01 mins
Loading maneuver chart data...
Loading SW <> Apogee altitude chart data...

ATLAS 5 CENTAUR DEB Visibility forecast

Observer location: undefined°, undefined°

Span
Click to sort rows by Start time (UTC) header in descending order
Start Az.
Max El. time (UTC)
Max El. Az.
Max El.
End time (UTC)
End Az.
707 mins2025-05-09 15:50:58.892Z204.078° SW2025-05-10 00:34:58.892Z127.653° SE35.61°2025-05-10 03:37:58.892Z110.301° ESE
|